| time (UTC) | temp F | wind direction | speed knots | gust knots | rain 1hr in | rain 24hr in | rain mn in | humidity % | barometer mb |
| 20260905143514 | 90 | 65 | 7.8 | 15.6 | 0.00 | 0.00 | 0.00 | 31 | 1017.3 |
| 20260905143015 | 90 | 360 | 7.0 | 13.0 | 0.00 | 0.00 | 0.00 | 31 | 1017.2 |
| 20260905142513 | 90 | 54 | 9.6 | 13.0 | 0.00 | 0.00 | 0.00 | 31 | 1017.2 |
| 20260905142013 | 90 | 11 | 8.7 | 15.6 | 0.00 | 0.00 | 0.00 | 30 | 1017.3 |
| 20260905141513 | 90 | 53 | 7.0 | 15.6 | 0.00 | 0.00 | 0.00 | 30 | 1017.3 |
| 20260905141011 | 91 | 18 | 7.8 | 12.2 | 0.00 | 0.00 | 0.00 | 31 | 1017.2 |
| 20260905140511 | 90 | 61 | 7.0 | 18.2 | 0.00 | 0.00 | 0.00 | 32 | 1017.2 |
| 20260905140011 | 90 | 40 | 7.8 | 18.2 | 0.00 | 0.00 | 0.00 | 31 | 1017.2 |
| 20260905135510 | 90 | 106 | 6.1 | 14.8 | 0.00 | 0.00 | 0.00 | 32 | 1017.1 |
| 20260905135013 | 90 | 62 | 9.6 | 17.4 | 0.00 | 0.00 | 0.00 | 32 | 1017.1 |
| 20260905134509 | 90 | 75 | 8.7 | 17.4 | 0.00 | 0.00 | 0.00 | 32 | 1017.1 |
| 20260905134007 | 91 | 45 | 8.7 | 14.8 | 0.00 | 0.00 | 0.00 | 32 | 1017.2 |
| 20260905133506 | 90 | 54 | 6.1 | 14.8 | 0.00 | 0.00 | 0.00 | 34 | 1017.2 |
| 20260905133010 | 90 | 98 | 7.0 | 14.8 | 0.00 | 0.00 | 0.00 | 33 | 1017.2 |
| 20260905132505 | 91 | 47 | 7.0 | 14.8 | 0.00 | 0.00 | 0.00 | 34 | 1017.4 |
| 20260905132004 | 90 | 19 | 6.1 | 14.8 | 0.00 | 0.00 | 0.00 | 33 | 1017.3 |
| 20260905131506 | 91 | 29 | 6.1 | 12.2 | 0.00 | 0.00 | 0.00 | 33 | 1017.3 |
| 20260905131002 | 91 | 19 | 4.3 | 13.0 | 0.00 | 0.00 | 0.00 | 33 | 1017.3 |
| 20260905130501 | 91 | 46 | 7.8 | 17.4 | 0.00 | 0.00 | 0.00 | 33 | 1017.3 |
| 20260905130100 | 90 | 15 | 4.3 | 17.4 | 0.00 | 0.00 | 0.00 | 33 | 1017.3 |
| 20260905125601 | 91 | 35 | 7.8 | 16.5 | 0.00 | 0.00 | 0.00 | 33 | 1017.2 |
| 20260905125059 | 90 | 65 | 11.3 | 17.4 | 0.00 | 0.00 | 0.00 | 33 | 1017.3 |
| 20260905124558 | 90 | 91 | 9.6 | 17.4 | 0.00 | 0.00 | 0.00 | 33 | 1017.4 |
| 20260905124057 | 91 | 69 | 9.6 | 14.8 | 0.00 | 0.00 | 0.00 | 33 | 1017.4 |
| 20260905123556 | 90 | 9 | 7.0 | 14.8 | 0.00 | 0.00 | 0.00 | 33 | 1017.3 |
| 20260905123058 | 90 | 65 | 7.0 | 17.4 | 0.00 | 0.00 | 0.00 | 33 | 1017.5 |
| 20260905122554 | 90 | 72 | 10.4 | 20.0 | 0.00 | 0.00 | 0.00 | 33 | 1017.4 |
| 20260905122058 | 90 | 355 | 12.2 | 20.0 | 0.00 | 0.00 | 0.00 | 32 | 1017.6 |
| 20260905121557 | 90 | 98 | 7.0 | 18.2 | 0.00 | 0.00 | 0.00 | 32 | 1017.6 |
| 20260905121052 | 90 | 89 | 8.7 | 18.2 | 0.00 | 0.00 | 0.00 | 33 | 1017.6 |
| 20260905120553 | 90 | 79 | 10.4 | 18.2 | 0.00 | 0.00 | 0.00 | 33 | 1017.6 |
| 20260905120050 | 90 | 49 | 11.3 | 18.2 | 0.00 | 0.00 | 0.00 | 34 | 1017.7 |
| 20260905115549 | 90 | 87 | 11.3 | 20.0 | 0.00 | 0.00 | 0.00 | 34 | 1017.7 |
| 20260905115049 | 89 | 85 | 11.3 | 20.0 | 0.00 | 0.00 | 0.00 | 35 | 1017.7 |
| 20260905114549 | 89 | 78 | 8.7 | 20.0 | 0.00 | 0.00 | 0.00 | 35 | 1017.7 |
| 20260905114047 | 89 | 86 | 9.6 | 17.4 | 0.00 | 0.00 | 0.00 | 34 | 1017.8 |
| 20260905113648 | 89 | 29 | 7.8 | 17.4 | 0.00 | 0.00 | 0.00 | 35 | 1017.8 |
| 20260905113050 | 89 | 126 | 9.6 | 17.4 | 0.00 | 0.00 | 0.00 | 35 | 1017.8 |
| 20260905112547 | 90 | 50 | 10.4 | 17.4 | 0.00 | 0.00 | 0.00 | 34 | 1017.8 |
| 20260905112046 | 89 | 60 | 7.0 | 13.0 | 0.00 | 0.00 | 0.00 | 36 | 1017.7 |
| 20260905111625 | 89 | 82 | 5.2 | 18.2 | 0.00 | 0.00 | 0.00 | 36 | 1017.8 |
| 20260905111044 | 89 | 85 | 12.2 | 18.2 | 0.00 | 0.00 | 0.00 | 35 | 1017.8 |
| 20260905110545 | 89 | 58 | 10.4 | 20.9 | 0.00 | 0.00 | 0.00 | 35 | 1017.8 |
| 20260905110044 | 89 | 67 | 10.4 | 20.9 | 0.00 | 0.00 | 0.00 | 36 | 1017.8 |
| 20260905105543 | 89 | 21 | 10.4 | 19.1 | 0.00 | 0.00 | 0.00 | 35 | 1017.8 |
| 20260905105044 | 89 | 39 | 11.3 | 20.9 | 0.00 | 0.00 | 0.00 | 35 | 1017.8 |
| 20260905104541 | 89 | 105 | 12.2 | 20.9 | 0.00 | 0.00 | 0.00 | 35 | 1017.7 |
| 20260905104044 | 89 | 61 | 8.7 | 19.1 | 0.00 | 0.00 | 0.00 | 35 | 1017.7 |
| 20260905103540 | 89 | 88 | 10.4 | 19.1 | 0.00 | 0.00 | 0.00 | 35 | 1017.7 |
| 20260905103041 | 89 | 18 | 8.7 | 17.4 | 0.00 | 0.00 | 0.00 | 35 | 1017.7 |
| 20260905102539 | 88 | 66 | 8.7 | 19.1 | 0.00 | 0.00 | 0.00 | 35 | 1017.7 |
| 20260905102039 | 89 | 19 | 9.6 | 19.1 | 0.00 | 0.00 | 0.00 | 35 | 1017.8 |
| 20260905101549 | 88 | 67 | 10.4 | 24.3 | 0.00 | 0.00 | 0.00 | 35 | 1017.7 |
| 20260905101038 | 88 | 95 | 14.8 | 24.3 | 0.00 | 0.00 | 0.00 | 35 | 1017.8 |
| 20260905100538 | 88 | 90 | 11.3 | 18.2 | 0.00 | 0.00 | 0.00 | 35 | 1017.8 |
| 20260905100046 | 89 | 360 | 11.3 | 17.4 | 0.00 | 0.00 | 0.00 | 35 | 1017.7 |
| 20260905095537 | 88 | 33 | 11.3 | 22.6 | 0.00 | 0.00 | 0.00 | 35 | 1017.8 |
| 20260905095036 | 88 | 47 | 8.7 | 25.2 | 0.00 | 0.00 | 0.00 | 35 | 1017.8 |
| 20260905094536 | 88 | 32 | 11.3 | 25.2 | 0.00 | 0.00 | 0.00 | 35 | 1017.9 |
| 20260905094035 | 88 | 41 | 9.6 | 20.9 | 0.00 | 0.00 | 0.00 | 35 | 1017.8 |
| 20260905093534 | 88 | 52 | 13.0 | 20.9 | 0.00 | 0.00 | 0.00 | 36 | 1017.9 |
| 20260905093033 | 88 | 68 | 13.9 | 20.0 | 0.00 | 0.00 | 0.00 | 35 | 1017.9 |
| 20260905092533 | 88 | 49 | 10.4 | 19.1 | 0.00 | 0.00 | 0.00 | 36 | 1017.9 |
| 20260905092031 | 87 | 23 | 13.0 | 20.0 | 0.00 | 0.00 | 0.00 | 37 | 1017.9 |
| 20260905091534 | 88 | 5 | 8.7 | 18.2 | 0.00 | 0.00 | 0.00 | 37 | 1018.1 |
| 20260905091029 | 87 | 77 | 11.3 | 22.6 | 0.00 | 0.00 | 0.00 | 37 | 1018.2 |
| 20260905090527 | 87 | 24 | 13.9 | 22.6 | 0.00 | 0.00 | 0.00 | 36 | 1018.2 |
| 20260905090026 | 87 | 5 | 7.8 | 21.7 | 0.00 | 0.00 | 0.00 | 38 | 1018.2 |
| 20260905085530 | 87 | 52 | 8.7 | 21.7 | 0.00 | 0.00 | 0.00 | 38 | 1018.2 |
| 20260905085026 | 87 | 14 | 12.2 | 19.1 | 0.00 | 0.00 | 0.00 | 38 | 1018.1 |
| 20260905084522 | 87 | 355 | 7.8 | 19.1 | 0.00 | 0.00 | 0.00 | 39 | 1018.2 |
| 20260905084021 | 86 | 48 | 10.4 | 19.1 | 0.00 | 0.00 | 0.00 | 39 | 1018.2 |
| 20260905083520 | 86 | 46 | 11.3 | 19.1 | 0.00 | 0.00 | 0.00 | 39 | 1018.3 |
| 20260905083019 | 86 | 32 | 11.3 | 19.1 | 0.00 | 0.00 | 0.00 | 39 | 1018.4 |
| 20260905082517 | 86 | 31 | 13.9 | 20.0 | 0.00 | 0.00 | 0.00 | 39 | 1018.4 |
| 20260905082018 | 86 | 34 | 9.6 | 20.0 | 0.00 | 0.00 | 0.00 | 39 | 1018.3 |
| 20260905081515 | 86 | 75 | 8.7 | 19.1 | 0.00 | 0.00 | 0.00 | 39 | 1018.3 |
| 20260905081014 | 85 | 40 | 11.3 | 20.9 | 0.00 | 0.00 | 0.00 | 39 | 1018.5 |
| 20260905080514 | 85 | 36 | 11.3 | 20.9 | 0.00 | 0.00 | 0.00 | 40 | 1018.4 |
| 20260905080012 | 85 | 5 | 12.2 | 21.7 | 0.00 | 0.00 | 0.00 | 39 | 1018.4 |
| 20260905075511 | 85 | 59 | 12.2 | 21.7 | 0.00 | 0.00 | 0.00 | 39 | 1018.3 |
| 20260905075010 | 85 | 12 | 13.0 | 18.2 | 0.00 | 0.00 | 0.00 | 41 | 1018.2 |
| 20260905074509 | 85 | 19 | 9.6 | 13.0 | 0.00 | 0.00 | 0.00 | 41 | 1018.1 |
| 20260905074006 | 85 | 11 | 7.8 | 16.5 | 0.00 | 0.00 | 0.00 | 41 | 1018.2 |
| 20260905073505 | 84 | 23 | 8.7 | 16.5 | 0.00 | 0.00 | 0.00 | 41 | 1018.2 |
| 20260905073004 | 84 | 16 | 11.3 | 19.1 | 0.00 | 0.00 | 0.00 | 42 | 1018.0 |
| 20260905072505 | 84 | 5 | 10.4 | 19.1 | 0.00 | 0.00 | 0.00 | 42 | 1018.0 |
| 20260905072001 | 84 | 360 | 8.7 | 18.2 | 0.00 | 0.00 | 0.00 | 42 | 1018.1 |
| 20260905071601 | 83 | 46 | 9.6 | 18.2 | 0.00 | 0.00 | 0.00 | 42 | 1017.9 |
| 20260905071102 | 83 | 17 | 7.8 | 18.2 | 0.00 | 0.00 | 0.00 | 42 | 1018.0 |
| 20260905070558 | 83 | 30 | 11.3 | 18.2 | 0.00 | 0.00 | 0.00 | 42 | 1018.0 |
| 20260905070056 | 84 | 32 | 7.8 | 20.0 | 0.00 | 0.00 | 0.00 | 41 | 1017.9 |
| 20260905065554 | 83 | 72 | 9.6 | 20.0 | 0.00 | 0.00 | 0.00 | 42 | 1017.9 |
| 20260905065054 | 84 | 40 | 9.6 | 15.6 | 0.00 | 0.00 | 0.00 | 41 | 1017.9 |
| 20260905064552 | 83 | 16 | 7.0 | 15.6 | 0.00 | 0.00 | 0.00 | 41 | 1017.8 |
| 20260905064050 | 83 | 58 | 5.2 | 18.2 | 0.00 | 0.00 | 0.00 | 42 | 1017.8 |
| 20260905063548 | 83 | 26 | 7.8 | 18.2 | 0.00 | 0.00 | 0.00 | 42 | 1017.8 |
| 20260905063047 | 83 | 73 | 9.6 | 17.4 | 0.00 | 0.00 | 0.00 | 42 | 1017.7 |
| 20260905062545 | 83 | 336 | 7.0 | 17.4 | 0.00 | 0.00 | 0.00 | 44 | 1017.7 |
| 20260905062044 | 82 | 36 | 11.3 | 17.4 | 0.00 | 0.00 | 0.00 | 43 | 1017.8 |
| 20260905061544 | 82 | 49 | 11.3 | 17.4 | 0.00 | 0.00 | 0.00 | 44 | 1017.8 |
| 20260905061042 | 82 | 57 | 11.3 | 17.4 | 0.00 | 0.00 | 0.00 | 44 | 1017.8 |
| 20260905060541 | 82 | 15 | 7.0 | 16.5 | 0.00 | 0.00 | 0.00 | 44 | 1017.8 |
| 20260905060040 | 82 | 50 | 10.4 | 16.5 | 0.00 | 0.00 | 0.00 | 43 | 1017.9 |
| 20260905055543 | 82 | 40 | 10.4 | 16.5 | 0.00 | 0.00 | 0.00 | 44 | 1017.9 |
| 20260905055041 | 82 | 64 | 7.0 | 14.8 | 0.00 | 0.00 | 0.00 | 44 | 1017.8 |
| 20260905054539 | 81 | 50 | 4.3 | 10.4 | 0.00 | 0.00 | 0.00 | 47 | 1017.8 |
| 20260905054035 | 80 | 344 | 0.0 | 2.6 | 0.00 | 0.00 | 0.00 | 50 | 1017.8 |
| 20260905053534 | 79 | 161 | 0.9 | 2.6 | 0.00 | 0.00 | 0.00 | 52 | 1017.7 |
| 20260905053032 | 79 | 177 | 0.0 | 2.6 | 0.00 | 0.00 | 0.00 | 53 | 1017.7 |
| 20260905052533 | 79 | 209 | 0.0 | 1.7 | 0.00 | 0.00 | 0.00 | 53 | 1017.7 |
| 20260905052034 | 78 | 212 | 0.0 | 2.6 | 0.00 | 0.00 | 0.00 | 53 | 1017.6 |
| 20260905051536 | 78 | 279 | 0.0 | 2.6 | 0.00 | 0.00 | 0.00 | 55 | 1017.7 |
| 20260905051026 | 78 | 309 | 0.9 | 4.3 | 0.00 | 0.00 | 0.00 | 55 | 1017.7 |
| 20260905050525 | 77 | 350 | 0.0 | 4.3 | 0.00 | 0.00 | 0.00 | 56 | 1017.7 |
| 20260905050026 | 77 | 332 | 1.7 | 7.8 | 0.00 | 0.00 | 0.00 | 57 | 1017.7 |
| 20260905045523 | 77 | 284 | 1.7 | 7.8 | 0.00 | 0.00 | 0.00 | 57 | 1017.7 |
| 20260905045024 | 77 | 338 | 3.5 | 9.6 | 0.00 | 0.00 | 0.00 | 57 | 1017.5 |
| 20260905044520 | 77 | 331 | 6.1 | 8.7 | 0.00 | 0.00 | 0.00 | 58 | 1017.5 |
| 20260905044019 | 77 | 319 | 4.3 | 8.7 | 0.00 | 0.00 | 0.00 | 58 | 1017.5 |
| 20260905043517 | 76 | 315 | 5.2 | 8.7 | 0.00 | 0.00 | 0.00 | 58 | 1017.4 |
| 20260905043016 | 76 | 302 | 3.5 | 8.7 | 0.00 | 0.00 | 0.00 | 58 | 1017.5 |
| 20260905042518 | 76 | 300 | 5.2 | 8.7 | 0.00 | 0.00 | 0.00 | 58 | 1017.5 |
| 20260905042013 | 76 | 345 | 3.5 | 8.7 | 0.00 | 0.00 | 0.00 | 57 | 1017.4 |
| 20260905041513 | 76 | 340 | 3.5 | 8.7 | 0.00 | 0.00 | 0.00 | 56 | 1017.3 |
| 20260905041013 | 76 | 78 | 0.9 | 3.5 | 0.00 | 0.00 | 0.00 | 56 | 1017.2 |
| 20260905040512 | 76 | 350 | 0.9 | 4.3 | 0.00 | 0.00 | 0.00 | 55 | 1017.1 |
| 20260905040011 | 77 | 336 | 2.6 | 4.3 | 0.00 | 0.00 | 0.00 | 55 | 1017.0 |
| 20260905035511 | 76 | 304 | 0.9 | 3.5 | 0.00 | 0.00 | 0.00 | 56 | 1016.9 |
| 20260905035015 | 76 | 272 | 0.0 | 3.5 | 0.00 | 0.00 | 0.00 | 57 | 1017.0 |
| 20260905034510 | 76 | 281 | 0.0 | 3.5 | 0.00 | 0.00 | 0.00 | 56 | 1017.0 |
| 20260905034010 | 76 | 276 | 0.9 | 4.3 | 0.00 | 0.00 | 0.00 | 56 | 1016.9 |
| 20260905033512 | 76 | 190 | 2.6 | 4.3 | 0.00 | 0.00 | 0.00 | 57 | 1016.9 |
| 20260905033018 | 76 | 330 | 2.6 | 6.1 | 0.00 | 0.00 | 0.00 | 57 | 1016.9 |
| 20260905032509 | 76 | 190 | 4.3 | 6.1 | 0.00 | 0.00 | 0.00 | 57 | 1016.8 |
| 20260905032009 | 76 | 240 | 0.9 | 3.5 | 0.00 | 0.00 | 0.00 | 56 | 1016.9 |
| 20260905031509 | 76 | 270 | 1.7 | 3.5 | 0.00 | 0.00 | 0.00 | 57 | 1016.8 |
| 20260905031008 | 76 | 302 | 1.7 | 3.5 | 0.00 | 0.00 | 0.00 | 56 | 1016.8 |
| 20260905030508 | 76 | 225 | 0.0 | 2.6 | 0.00 | 0.00 | 0.00 | 55 | 1016.9 |
| 20260905030010 | 76 | 182 | 0.0 | 3.5 | 0.00 | 0.00 | 0.00 | 55 | 1016.8 |
| 20260905025507 | 76 | 189 | 1.7 | 3.5 | 0.00 | 0.00 | 0.00 | 54 | 1016.8 |
| 20260905025007 | 76 | 215 | 1.7 | 3.5 | 0.00 | 0.00 | 0.00 | 53 | 1016.8 |
| 20260905024507 | 77 | 231 | 0.9 | 2.6 | 0.00 | 0.00 | 0.00 | 53 | 1016.9 |
| 20260905024008 | 77 | 217 | 0.9 | 2.6 | 0.00 | 0.00 | 0.00 | 51 | 1016.9 |
| 20260905023507 | 77 | 208 | 0.9 | 7.0 | 0.00 | 0.00 | 0.00 | 51 | 1016.9 |
| 20260905023006 | 77 | 205 | 4.3 | 7.0 | 0.00 | 0.00 | 0.00 | 50 | 1016.8 |
| 20260905022507 | 76 | 179 | 6.1 | 7.8 | 0.00 | 0.00 | 0.00 | 52 | 1016.8 |
| 20260905022006 | 76 | 127 | 1.7 | 3.5 | 0.00 | 0.00 | 0.00 | 52 | 1017.0 |
| 20260905021505 | 76 | 126 | 0.9 | 4.3 | 0.00 | 0.00 | 0.00 | 52 | 1016.9 |
| 20260905021005 | 76 | 126 | 1.7 | 3.5 | 0.00 | 0.00 | 0.00 | 53 | 1016.8 |
| 20260905020509 | 76 | 117 | 0.0 | 7.0 | 0.00 | 0.00 | 0.00 | 53 | 1016.9 |
| 20260905020005 | 75 | 119 | 3.5 | 7.0 | 0.00 | 0.00 | 0.00 | 53 | 1016.8 |
| 20260905015504 | 75 | 129 | 0.9 | 3.5 | 0.00 | 0.00 | 0.00 | 53 | 1016.6 |
| 20260905015008 | 76 | 67 | 1.7 | 5.2 | 0.00 | 0.00 | 0.00 | 53 | 1016.9 |
| 20260905014503 | 76 | 11 | 2.6 | 7.8 | 0.00 | 0.00 | 0.00 | 53 | 1016.7 |
| 20260905014003 | 77 | 23 | 4.3 | 9.6 | 0.00 | 0.00 | 0.00 | 52 | 1016.6 |
| 20260905013502 | 78 | 55 | 4.3 | 9.6 | 0.00 | 0.00 | 0.00 | 51 | 1016.5 |
| 20260905013005 | 78 | 50 | 3.5 | 11.3 | 0.00 | 0.00 | 0.00 | 51 | 1016.5 |
| 20260905012502 | 78 | 85 | 5.2 | 13.9 | 0.00 | 0.00 | 0.00 | 50 | 1016.5 |
| 20260905012002 | 78 | 82 | 7.0 | 13.9 | 0.00 | 0.00 | 0.00 | 50 | 1016.6 |
| 20260905011504 | 78 | 79 | 5.2 | 8.7 | 0.00 | 0.00 | 0.00 | 50 | 1016.7 |
| 20260905011001 | 78 | 105 | 6.1 | 11.3 | 0.00 | 0.00 | 0.00 | 50 | 1016.6 |
| 20260905010500 | 78 | 87 | 6.1 | 10.4 | 0.00 | 0.00 | 0.00 | 49 | 1016.6 |
| 20260905010000 | 78 | 105 | 5.2 | 8.7 | 0.00 | 0.00 | 0.00 | 49 | 1016.6 |
| 20260905005600 | 78 | 59 | 4.3 | 7.8 | 0.00 | 0.00 | 0.00 | 49 | 1016.6 |
| 20260905005105 | 78 | 102 | 2.6 | 7.8 | 0.00 | 0.00 | 0.00 | 49 | 1016.6 |
| 20260905004617 | 78 | 117 | 3.5 | 7.8 | 0.00 | 0.00 | 0.00 | 49 | 1016.7 |
| 20260905004058 | 78 | 99 | 2.6 | 7.8 | 0.00 | 0.00 | 0.00 | 48 | 1016.6 |
| 20260905003600 | 78 | 111 | 4.3 | 6.1 | 0.00 | 0.00 | 0.00 | 48 | 1016.7 |
| 20260905003102 | 78 | 107 | 2.6 | 5.2 | 0.00 | 0.00 | 0.00 | 48 | 1016.7 |
| 20260905002557 | 78 | 101 | 0.9 | 5.2 | 0.00 | 0.00 | 0.00 | 48 | 1016.6 |
| 20260905002058 | 78 | 137 | 0.0 | 0.0 | 0.00 | 0.00 | 0.00 | 47 | 1016.6 |
| 20260905001601 | 78 | 141 | 0.0 | 2.6 | 0.00 | 0.00 | 0.00 | 47 | 1016.7 |
| 20260905001059 | 78 | 144 | 0.0 | 5.2 | 0.00 | 0.00 | 0.00 | 47 | 1016.8 |
| 20260905000557 | 77 | 147 | 1.7 | 5.2 | 0.00 | 0.00 | 0.00 | 47 | 1016.7 |
| 20260905000116 | 77 | 99 | 0.9 | 2.6 | 0.00 | 0.00 | 0.00 | 48 | 1016.7 |
| 20260904235558 | 77 | 45 | 0.0 | 0.0 | 0.00 | 0.00 | 0.00 | 48 | 1016.7 |
| 20260904235057 | 77 | 46 | 0.0 | 1.7 | 0.00 | 0.00 | 0.00 | 48 | 1016.8 |
| 20260904234556 | 77 | 45 | 0.0 | 1.7 | 0.00 | 0.00 | 0.00 | 48 | 1016.8 |
| 20260904234056 | 77 | 38 | 0.0 | 0.0 | 0.00 | 0.00 | 0.00 | 49 | 1016.8 |
| 20260904233557 | 77 | 38 | 0.0 | 0.9 | 0.00 | 0.00 | 0.00 | 49 | 1016.7 |
| 20260904233057 | 76 | 39 | 0.0 | 0.9 | 0.00 | 0.00 | 0.00 | 49 | 1016.6 |
| 20260904232657 | 76 | 39 | 0.0 | 1.7 | 0.00 | 0.00 | 0.00 | 50 | 1016.7 |
| 20260904232057 | 76 | 39 | 0.0 | 1.7 | 0.00 | 0.00 | 0.00 | 50 | 1016.7 |
| 20260904231554 | 75 | 36 | 0.9 | 3.5 | 0.00 | 0.00 | 0.00 | 50 | 1016.7 |
| 20260904231053 | 76 | 34 | 1.7 | 3.5 | 0.00 | 0.00 | 0.00 | 51 | 1016.7 |
| 20260904230553 | 76 | 21 | 2.6 | 3.5 | 0.00 | 0.00 | 0.00 | 50 | 1016.9 |
| 20260904230109 | 76 | 26 | 1.7 | 4.3 | 0.00 | 0.00 | 0.00 | 50 | 1016.8 |
| 20260904225553 | 75 | 32 | 1.7 | 4.3 | 0.00 | 0.00 | 0.00 | 51 | 1016.9 |
| 20260904225051 | 75 | 30 | 1.7 | 4.3 | 0.00 | 0.00 | 0.00 | 51 | 1016.9 |
| 20260904224550 | 75 | 28 | 2.6 | 4.3 | 0.00 | 0.00 | 0.00 | 51 | 1016.9 |
| 20260904224050 | 75 | 14 | 2.6 | 4.3 | 0.00 | 0.00 | 0.00 | 51 | 1017.0 |
| 20260904223548 | 76 | 31 | 1.7 | 3.5 | 0.00 | 0.00 | 0.00 | 50 | 1017.0 |
| 20260904223051 | 76 | 31 | 1.7 | 3.5 | 0.00 | 0.00 | 0.00 | 49 | 1017.0 |
| 20260904222549 | 77 | 34 | 0.9 | 3.5 | 0.00 | 0.00 | 0.00 | 49 | 1017.0 |
| 20260904222044 | 78 | 97 | 0.0 | 3.5 | 0.00 | 0.00 | 0.00 | 47 | 1016.9 |
| 20260904221546 | 78 | 82 | 0.0 | 5.2 | 0.00 | 0.00 | 0.00 | 46 | 1017.0 |
| 20260904221042 | 79 | 85 | 0.9 | 5.2 | 0.00 | 0.00 | 0.00 | 45 | 1017.1 |
| 20260904220544 | 79 | 82 | 2.6 | 6.1 | 0.00 | 0.00 | 0.00 | 45 | 1017.2 |
| 20260904220045 | 79 | 89 | 2.6 | 5.2 | 0.00 | 0.00 | 0.00 | 45 | 1017.2 |
| 20260904215543 | 79 | 73 | 2.6 | 7.0 | 0.00 | 0.00 | 0.00 | 45 | 1017.2 |
| 20260904215040 | 79 | 85 | 3.5 | 7.0 | 0.00 | 0.00 | 0.00 | 45 | 1017.1 |
| 20260904214540 | 79 | 90 | 1.7 | 7.0 | 0.00 | 0.00 | 0.00 | 44 | 1017.3 |
| 20260904214039 | 79 | 72 | 1.7 | 7.8 | 0.00 | 0.00 | 0.00 | 44 | 1017.2 |
| 20260904213539 | 80 | 112 | 1.7 | 7.8 | 0.00 | 0.00 | 0.00 | 44 | 1017.2 |
| 20260904213042 | 79 | 53 | 2.6 | 6.1 | 0.00 | 0.00 | 0.00 | 44 | 1017.3 |
| 20260904212540 | 79 | 75 | 0.9 | 3.5 | 0.00 | 0.00 | 0.00 | 45 | 1017.2 |
| 20260904212038 | 79 | 88 | 0.0 | 5.2 | 0.00 | 0.00 | 0.00 | 45 | 1017.3 |
| 20260904211535 | 79 | 88 | 2.6 | 6.1 | 0.00 | 0.00 | 0.00 | 45 | 1017.2 |
| 20260904211035 | 79 | 97 | 0.0 | 2.6 | 0.00 | 0.00 | 0.00 | 46 | 1017.3 |
| 20260904210537 | 79 | 92 | 0.9 | 3.5 | 0.00 | 0.00 | 0.00 | 45 | 1017.2 |
| 20260904210034 | 78 | 98 | 0.0 | 3.5 | 0.00 | 0.00 | 0.00 | 46 | 1017.3 |
| 20260904205534 | 78 | 71 | 0.0 | 3.5 | 0.00 | 0.00 | 0.00 | 46 | 1017.2 |
| 20260904205033 | 79 | 84 | 0.9 | 3.5 | 0.00 | 0.00 | 0.00 | 45 | 1017.3 |
| 20260904204535 | 79 | 101 | 0.0 | 2.6 | 0.00 | 0.00 | 0.00 | 45 | 1017.3 |
| 20260904204034 | 79 | 78 | 0.9 | 2.6 | 0.00 | 0.00 | 0.00 | 46 | 1017.3 |
| 20260904203532 | 78 | 74 | 0.0 | 0.9 | 0.00 | 0.00 | 0.00 | 48 | 1017.4 |
| 20260904203032 | 78 | 73 | 0.0 | 1.7 | 0.00 | 0.00 | 0.00 | 48 | 1017.4 |
| 20260904202532 | 78 | 73 | 0.0 | 1.7 | 0.00 | 0.00 | 0.00 | 48 | 1017.4 |
| 20260904202031 | 79 | 75 | 0.0 | 4.3 | 0.00 | 0.00 | 0.00 | 48 | 1017.4 |
| 20260904201531 | 79 | 76 | 0.9 | 4.3 | 0.00 | 0.00 | 0.00 | 46 | 1017.5 |
| 20260904201033 | 79 | 63 | 0.0 | 2.6 | 0.00 | 0.00 | 0.00 | 46 | 1017.5 |
| 20260904200535 | 79 | 39 | 0.0 | 2.6 | 0.00 | 0.00 | 0.00 | 47 | 1017.4 |
| 20260904200042 | 79 | 34 | 0.9 | 3.5 | 0.00 | 0.00 | 0.00 | 47 | 1017.4 |
| 20260904195532 | 80 | 15 | 1.7 | 4.3 | 0.00 | 0.00 | 0.00 | 47 | 1017.5 |
| 20260904195030 | 80 | 95 | 1.7 | 4.3 | 0.00 | 0.00 | 0.00 | 46 | 1017.5 |
| 20260904194534 | 80 | 84 | 0.0 | 5.2 | 0.00 | 0.00 | 0.00 | 46 | 1017.5 |
| 20260904194030 | 80 | 107 | 1.7 | 7.0 | 0.00 | 0.00 | 0.00 | 47 | 1017.5 |
| 20260904193530 | 80 | 85 | 2.6 | 7.0 | 0.00 | 0.00 | 0.00 | 47 | 1017.5 |
| 20260904193036 | 80 | 87 | 3.5 | 7.0 | 0.00 | 0.00 | 0.00 | 47 | 1017.5 |
| 20260904192529 | 80 | 117 | 1.7 | 3.5 | 0.00 | 0.00 | 0.00 | 46 | 1017.6 |
| 20260904192029 | 80 | 83 | 0.0 | 8.7 | 0.00 | 0.00 | 0.00 | 45 | 1017.6 |
| 20260904191537 | 80 | 86 | 4.3 | 8.7 | 0.00 | 0.00 | 0.00 | 45 | 1017.6 |
| 20260904191029 | 80 | 87 | 1.7 | 4.3 | 0.00 | 0.00 | 0.00 | 44 | 1017.6 |
| 20260904190529 | 80 | 84 | 0.0 | 4.3 | 0.00 | 0.00 | 0.00 | 44 | 1017.6 |
| 20260904190027 | 81 | 90 | 0.0 | 5.2 | 0.00 | 0.00 | 0.00 | 45 | 1017.5 |
| 20260904185528 | 81 | 93 | 1.7 | 5.2 | 0.00 | 0.00 | 0.00 | 45 | 1017.4 |
| 20260904185026 | 81 | 42 | 0.0 | 2.6 | 0.00 | 0.00 | 0.00 | 45 | 1017.3 |
| 20260904184525 | 81 | 25 | 0.0 | 3.5 | 0.00 | 0.00 | 0.00 | 45 | 1017.2 |
| 20260904184025 | 81 | 82 | 1.7 | 3.5 | 0.00 | 0.00 | 0.00 | 45 | 1017.2 |
| 20260904183525 | 81 | 115 | 0.9 | 3.5 | 0.00 | 0.00 | 0.00 | 46 | 1017.2 |
| 20260904183023 | 81 | 113 | 1.7 | 3.5 | 0.00 | 0.00 | 0.00 | 46 | 1017.1 |
| 20260904182523 | 81 | 88 | 0.9 | 5.2 | 0.00 | 0.00 | 0.00 | 45 | 1017.1 |
| 20260904182023 | 81 | 99 | 3.5 | 7.8 | 0.00 | 0.00 | 0.00 | 45 | 1017.0 |
| 20260904181532 | 81 | 69 | 2.6 | 7.8 | 0.00 | 0.00 | 0.00 | 45 | 1017.1 |
| 20260904181022 | 81 | 67 | 2.6 | 7.0 | 0.00 | 0.00 | 0.00 | 46 | 1017.0 |
| 20260904180522 | 81 | 92 | 3.5 | 8.7 | 0.00 | 0.00 | 0.00 | 45 | 1017.0 |
| 20260904180022 | 81 | 61 | 4.3 | 8.7 | 0.00 | 0.00 | 0.00 | 45 | 1017.0 |
| 20260904175521 | 82 | 111 | 3.5 | 7.8 | 0.00 | 0.00 | 0.00 | 45 | 1016.9 |
| 20260904175021 | 82 | 124 | 4.3 | 7.8 | 0.00 | 0.00 | 0.00 | 45 | 1016.8 |
| 20260904174520 | 82 | 114 | 3.5 | 7.8 | 0.00 | 0.00 | 0.00 | 45 | 1016.8 |
| 20260904174020 | 82 | 72 | 4.3 | 7.8 | 0.00 | 0.00 | 0.00 | 44 | 1016.7 |
| 20260904173517 | 82 | 88 | 3.5 | 7.8 | 0.00 | 0.00 | 0.00 | 44 | 1016.6 |
| 20260904173019 | 82 | 63 | 3.5 | 8.7 | 0.00 | 0.00 | 0.00 | 44 | 1016.4 |
| 20260904172516 | 82 | 360 | 1.7 | 8.7 | 0.00 | 0.00 | 0.00 | 44 | 1016.3 |
| 20260904172016 | 83 | 82 | 3.5 | 10.4 | 0.00 | 0.00 | 0.00 | 44 | 1016.4 |
| 20260904171518 | 83 | 98 | 2.6 | 10.4 | 0.00 | 0.00 | 0.00 | 45 | 1016.3 |
| 20260904171016 | 83 | 55 | 6.1 | 10.4 | 0.00 | 0.00 | 0.00 | 44 | 1016.3 |
| 20260904170514 | 83 | 40 | 7.0 | 10.4 | 0.00 | 0.00 | 0.00 | 43 | 1016.2 |
| 20260904170015 | 84 | 68 | 7.0 | 10.4 | 0.00 | 0.00 | 0.00 | 41 | 1016.1 |
| 20260904165516 | 84 | 82 | 4.3 | 10.4 | 0.00 | 0.00 | 0.00 | 39 | 1016.0 |
| 20260904165015 | 84 | 44 | 5.2 | 12.2 | 0.00 | 0.00 | 0.00 | 38 | 1015.9 |
| 20260904164514 | 84 | 13 | 8.7 | 12.2 | 0.00 | 0.00 | 0.00 | 38 | 1016.0 |
| 20260904164017 | 85 | 59 | 7.0 | 14.8 | 0.00 | 0.00 | 0.00 | 39 | 1016.0 |
| 20260904163513 | 85 | 5 | 8.7 | 14.8 | 0.00 | 0.00 | 0.00 | 39 | 1016.0 |
| 20260904163014 | 85 | 59 | 6.1 | 13.9 | 0.00 | 0.00 | 0.00 | 39 | 1016.0 |
| 20260904162514 | 85 | 44 | 7.0 | 13.0 | 0.00 | 0.00 | 0.00 | 39 | 1016.0 |
| 20260904162014 | 85 | 24 | 7.8 | 14.8 | 0.00 | 0.00 | 0.00 | 39 | 1015.9 |
| 20260904161513 | 85 | 5 | 9.6 | 15.6 | 0.00 | 0.00 | 0.00 | 39 | 1015.9 |
| 20260904161016 | 86 | 349 | 8.7 | 20.9 | 0.00 | 0.00 | 0.00 | 39 | 1015.9 |
| 20260904160514 | 86 | 28 | 13.0 | 20.9 | 0.00 | 0.00 | 0.00 | 39 | 1015.9 |
| 20260904160013 | 86 | 5 | 9.6 | 21.7 | 0.00 | 0.00 | 0.00 | 39 | 1015.8 |
| 20260904155512 | 86 | 355 | 12.2 | 21.7 | 0.00 | 0.00 | 0.00 | 39 | 1015.7 |
| 20260904155012 | 86 | 5 | 11.3 | 20.0 | 0.00 | 0.00 | 0.00 | 38 | 1015.6 |
| 20260904154512 | 87 | 29 | 12.2 | 20.0 | 0.00 | 0.00 | 0.00 | 38 | 1015.6 |
| 20260904154015 | 87 | 55 | 10.4 | 18.2 | 0.00 | 0.00 | 0.00 | 39 | 1015.6 |
| 20260904153511 | 87 | 355 | 10.4 | 19.1 | 0.00 | 0.00 | 0.00 | 39 | 1015.6 |
| 20260904153018 | 87 | 19 | 13.0 | 19.1 | 0.00 | 0.00 | 0.00 | 40 | 1015.5 |
| 20260904152510 | 87 | 17 | 8.7 | 16.5 | 0.00 | 0.00 | 0.00 | 39 | 1015.6 |
| 20260904152010 | 87 | 14 | 7.8 | 18.2 | 0.00 | 0.00 | 0.00 | 38 | 1015.4 |
| 20260904151510 | 87 | 348 | 13.9 | 18.2 | 0.00 | 0.00 | 0.00 | 39 | 1015.4 |
| 20260904151013 | 87 | 19 | 7.8 | 18.2 | 0.00 | 0.00 | 0.00 | 40 | 1015.5 |
| 20260904150508 | 87 | 28 | 7.0 | 18.2 | 0.00 | 0.00 | 0.00 | 40 | 1015.4 |
| 20260904150008 | 87 | 355 | 9.6 | 20.9 | 0.00 | 0.00 | 0.00 | 40 | 1015.4 |
| 20260904145508 | 87 | 39 | 13.0 | 21.7 | 0.00 | 0.00 | 0.00 | 40 | 1015.4 |
| 20260904145008 | 87 | 17 | 13.9 | 21.7 | 0.00 | 0.00 | 0.00 | 40 | 1015.4 |
| 20260904144507 | 87 | 30 | 13.0 | 23.5 | 0.00 | 0.00 | 0.00 | 39 | 1015.4 |
| 20260904144009 | 87 | 9 | 9.6 | 23.5 | 0.00 | 0.00 | 0.00 | 39 | 1015.5 |